{"data":{"norad_id":62099,"intl_designator":"2024-220M","name":"STARLINK-11380 [DTC]","alt_names":[],"object_type":"PAYLOAD","status":"ACTIVE","operator":null,"country":"US","launch_date":"2024-11-25","launch_site_code":"AFETR","launch_vehicle":null,"mission":null,"orbit_class":"UNKNOWN","rcs_meters":null,"size_class":null,"mass_kg":null,"dimensions":null,"purposes":["comms"],"wikipedia_slug":null,"has_3d_model":false,"image_url":null,"decayed_at":null,"tle_current":{"epoch":"2026-05-25T03:38:26.341728Z","epoch_age_seconds":58410,"freshness":"FRESH","line1":"1 62099U 24220M   26145.15169377  .00340463  00000+0  25112-2 0  9995","line2":"2 62099  43.0000 301.7402 0002746 304.9028  55.1581 15.71201660 86982","mean_motion":15.7120166,"eccentricity":0.0002746,"inclination_deg":43,"raan_deg":301.7402,"arg_perigee_deg":304.9028,"mean_anomaly_deg":55.1581,"bstar":0.0025112,"rev_number":8698,"period_min":91.649597671632,"perigee_km":353.61252172086,"apogee_km":357.31061405434,"semimajor_km":6733.5985678876,"source":"CELESTRAK","updated_at":"2026-05-25T13:38:19.559444Z"}}}